Location: Five Points
(35.0662°N, 106.6667°W)
Time: 22:44:40
(UTC+00:00)

Daily predictions for brighter satellites

Satellite Brightness Start Highest point End
(mag) Time Altitude Azimuth Time Altitude Azimuth Time Altitude Azimuth
Cosmos 1484 Rocket 3.0 12:01:44 10° N 12:05:38 53° WNW 12:09:31 10° SSW
Cosmos 44 Rocket 3.4 12:06:45 10° SSW 12:11:25 76° ESE 12:16:12 10° NNE
Meteor 1-4 Rocket 4.0 12:10:04 12° WSW 12:11:55 18° WNW 12:14:22 10° NNW
Meteor 1-11 Rocket 3.8 12:08:29 10° NNW 12:14:07 56° W 12:19:36 10° S
Cosmos 1437 Rocket 3.4 12:11:14 10° S 12:14:55 57° E 12:18:38 10° NNE
Meteor 1-31 Rocket 3.0 12:12:27 10° N 12:16:07 47° WNW 12:19:49 10° SSW
Cosmos 2208 Rocket 4.1 12:11:12 10° SSW 12:16:30 87° ESE 12:21:43 10° NNE
Cosmos 1898 Rocket 3.5 12:11:16 10° NNW 12:16:31 77° WSW 12:21:47 10° S
COSMO-SKYMED 1 3.0 12:15:53 10° SSE 12:20:10 68° ENE 12:24:30 10° N
Meteor 1-27 Rocket 4.3 12:17:22 10° SW 12:22:52 39° WNW 12:28:24 10° N
ADEOS 4.3 12:18:29 10° N 12:23:06 33° WNW 12:27:43 10° SW
ERS-2 3.8 12:22:29 10° SW 12:24:29 14° W 12:26:29 10° WNW
Meteor 2-20 4.5 12:21:22 10° SSW 12:27:28 68° W 12:33:35 10° N
Cosmos 2100 Rocket 4.1 12:22:05 10° NNW 12:28:20 60° W 12:34:34 10° S
SJ-12 4.0 12:25:31 10° N 12:29:35 58° WNW 12:33:38 10° SSW
Cosmos 1802 Rocket 4.0 12:23:38 10° N 12:29:50 80° W 12:36:06 10° S
Cosmos 858 Rocket 4.5 12:24:48 10° NNW 12:30:00 83° WSW 12:35:11 10° SSE
